KOZAKOV Weather Reports


time (UTC)temp
C
wind
direction
speed
KPH
gust
KPH
rain 1hr
cm
rain 24hr
cm
rain mn
cm
humidity
%
barometer
mb
20260502182018 16 169 11.3 11.3 0.00 0.00 0.00 27
20260502181517 16 173 6.4 11.3 0.00 0.00 0.00 27
20260502181017 16 180 6.4 11.3 0.00 0.00 0.00 26
20260502180517 16 180 6.4 6.4 0.00 0.00 0.00 26
20260502170518 17 176 6.4 11.3 0.00 0.00 0.00 26
20260502164017 17 214 6.4 11.3 0.00 0.00 0.00 26
20260502163517 17 184 3.2 6.4 0.00 0.00 0.00 26
20260502163018 17 177 11.3 11.3 0.00 0.00 0.00 26
20260502162516 17 165 6.4 14.5 0.00 0.00 0.00 26
20260502162017 17 180 6.4 11.3 0.00 0.00 0.00 26
20260502161518 17 215 6.4 11.3 0.00 0.00 0.00 26
20260502161016 17 182 3.2 3.2 0.00 0.00 0.00 26
20260502160518 17 167 6.4 11.3 0.00 0.00 0.00 25
20260502152018 17 225 6.4 14.5 0.00 0.00 0.00 25
20260502151517 17 182 6.4 14.5 0.00 0.00 0.00 24
20260502151017 17 189 6.4 14.5 0.00 0.00 0.00 24
20260502150517 17 207 6.4 11.3 0.00 0.00 0.00 24
20260502130518 17 226 3.2 3.2 0.00 0.00 0.00 27
20260502123517 17 155 6.4 11.3 0.00 0.00 0.00 28
20260502123018 17 215 3.2 6.4 0.00 0.00 0.00 28
20260502122517 17 129 0.0 3.2 0.00 0.00 0.00 28
20260502122020 16 176 6.4 11.3 0.00 0.00 0.00 29
20260502121518 16 155 6.4 6.4 0.00 0.00 0.00 30
20260502121018 16 173 11.3 11.3 0.00 0.00 0.00 30
20260502120518 17 212 6.4 11.3 0.00 0.00 0.00 30
20260502115517 17 213 6.4 11.3 0.00 0.00 0.00 31
20260502115018 16 137 11.3 14.5 0.00 0.00 0.00 32
20260502114518 16 161 11.3 14.5 0.00 0.00 0.00 32
20260502114017 17 212 3.2 11.3 0.00 0.00 0.00 32
20260502113517 17 230 3.2 6.4 0.00 0.00 0.00 32
20260502113018 16 264 3.2 6.4 0.00 0.00 0.00 32
20260502112517 16 182 3.2 6.4 0.00 0.00 0.00 34
20260502112019 16 192 0.0 3.2 0.00 0.00 0.00 33
20260502111517 15 133 14.5 17.7 0.00 0.00 0.00 34
20260502111017 16 216 6.4 11.3 0.00 0.00 0.00 34
20260502110518 16 164 6.4 14.5 0.00 0.00 0.00 34
20260502110018 16 263 6.4 11.3 0.00 0.00 0.00 35
20260502105517 16 200 6.4 11.3 0.00 0.00 0.00 35
20260502105018 15 184 6.4 11.3 0.00 0.00 0.00 35
20260502104517 16 158 6.4 6.4 0.00 0.00 0.00 35
20260502104018 16 158 11.3 14.5 0.00 0.00 0.00 35
20260502103517 16 207 11.3 11.3 0.00 0.00 0.00 35
20260502103018 16 279 3.2 6.4 0.00 0.00 0.00 35
20260502102518 16 186 3.2 6.4 0.00 0.00 0.00 35
20260502102020 16 196 6.4 11.3 0.00 0.00 0.00 34
20260502101518 16 203 3.2 6.4 0.00 0.00 0.00 35
20260502101018 15 165 6.4 11.3 0.00 0.00 0.00 35
20260502100517 16 236 3.2 3.2 0.00 0.00 0.00 35
20260502091517 15 195 6.4 14.5 0.00 0.00 0.00 40
20260502091018 15 201 3.2 6.4 0.00 0.00 0.00 41
20260502090517 15 226 3.2 6.4 0.00 0.00 0.00 41
20260502071517 15 184 0.0 0.0 0.00 0.00 0.00 46
20260502071017 13 186 0.0 3.2 0.00 0.00 0.00 46
20260502070517 13 190 0.0 3.2 0.00 0.00 0.00 45
20260502070017 13 190 0.0 0.0 0.00 0.00 0.00 46
20260502065518 13 190 0.0 3.2 0.00 0.00 0.00 45
20260502065017 12 182 3.2 3.2 0.00 0.00 0.00 45
20260502064517 13 168 3.2 3.2 0.00 0.00 0.00 43
20260502064017 13 168 0.0 3.2 0.00 0.00 0.00 43
20260502063017 13 161 3.2 3.2 0.00 0.00 0.00 43
20260502062021 13 161 0.0 3.2 0.00 0.00 0.00 43
20260502061517 13 161 3.2 3.2 0.00 0.00 0.00 44
20260502061017 13 161 0.0 0.0 0.00 0.00 0.00 44
20260502060017 12 161 0.0 3.2 0.00 0.00 0.00 44
20260502053518 12 161 3.2 3.2 0.00 0.00 0.00 45
20260502053017 12 161 0.0 3.2 0.00 0.00 0.00 44
20260502052517 12 161 0.0 0.0 0.00 0.00 0.00 44
20260502051517 12 161 0.0 0.0 0.00 0.00 0.00 45
20260502050518 12 161 3.2 3.2 0.00 0.00 0.00 45
20260502045509 12 161 0.0 3.2 0.00 0.00 0.00 44
20260502044517 12 161 0.0 0.0 0.00 0.00 0.00 43
20260502044023 12 161 0.0 0.0 0.00 0.00 0.00 44
20260502043510 12 161 0.0 0.0 0.00 0.00 0.00 46
20260502042021 12 161 3.2 3.2 0.00 0.00 0.00 46
20260502041011 12 161 3.2 3.2 0.00 0.00 0.00 45
20260502040010 12 161 0.0 0.0 0.00 0.00 0.00 44
20260502035010 12 161 0.0 0.0 0.00 0.00 0.00 46
20260502033510 12 161 3.2 3.2 0.00 0.00 0.00 47
20260502023517 12 161 3.2 3.2 0.00 0.00 0.00 46
20260502023017 12 161 6.4 6.4 0.00 0.00 0.00 46
20260502022517 12 161 3.2 6.4 0.00 0.00 0.00 46
20260502021518 12 161 3.2 3.2 0.00 0.00 0.00 45
20260502021010 12 161 3.2 3.2 0.00 0.00 0.00 44
20260502020511 12 161 3.2 3.2 0.00 0.00 0.00 45
20260502015017 12 161 3.2 3.2 0.00 0.00 0.00 44
20260502014511 12 146 3.2 3.2 0.00 0.00 0.00 44
20260502011517 12 112 3.2 3.2 0.00 0.00 0.00 43
20260502011011 12 112 3.2 3.2 0.00 0.00 0.00 42
20260502010517 12 112 3.2 3.2 0.00 0.00 0.00 41
20260502010018 12 112 6.4 6.4 0.00 0.00 0.00 41
20260502004018 12 112 3.2 3.2 0.00 0.00 0.00 40
20260502003518 12 112 3.2 3.2 0.00 0.00 0.00 41
20260502003018 12 112 3.2 3.2 0.00 0.00 0.00 42
20260502002517 12 112 3.2 3.2 0.00 0.00 0.00 43
20260502002019 12 112 3.2 3.2 0.00 0.00 0.00 43
20260502001515 12 112 3.2 6.4 0.00 0.00 0.00 44
20260502001018 12 112 6.4 6.4 0.00 0.00 0.00 44
20260502000517 12 112 11.3 11.3 0.00 0.00 0.00 44
20260502000018 12 107 11.3 11.3 0.00 0.00 0.00 44
20260501235517 12 95 11.3 11.3 0.00 0.00 0.00 43
20260501235018 12 95 11.3 11.3 0.00 0.00 0.00 44
20260501234517 12 93 11.3 11.3 0.00 0.00 0.00 43
20260501233517 12 94 11.3 11.3 0.00 0.00 0.00 43
20260501233017 12 91 11.3 14.5 0.00 0.00 0.00 42
20260501232517 12 92 14.5 14.5 0.00 0.00 0.00 42
20260501232020 12 97 11.3 14.5 0.00 0.00 0.00 43
20260501231517 12 104 11.3 14.5 0.00 0.00 0.00 42
20260501231018 12 105 11.3 11.3 0.00 0.00 0.00 42
20260501230517 12 109 14.5 14.5 0.00 0.00 0.00 42
20260501230017 12 101 14.5 14.5 0.00 0.00 0.00 42
20260501225517 12 103 14.5 14.5 0.00 0.00 0.00 42
20260501224517 12 99 11.3 14.5 0.00 0.00 0.00 41
20260501224017 12 93 14.5 17.7 0.00 0.00 0.00 40
20260501223517 12 91 14.5 14.5 0.00 0.00 0.00 41
20260501223018 12 89 14.5 14.5 0.00 0.00 0.00 41
20260501222517 12 93 14.5 14.5 0.00 0.00 0.00 40
20260501222018 12 85 14.5 14.5 0.00 0.00 0.00 40
20260501221518 12 81 14.5 14.5 0.00 0.00 0.00 40
20260501221018 12 76 14.5 17.7 0.00 0.00 0.00 39
20260501220522 12 71 14.5 14.5 0.00 0.00 0.00 39
20260501220017 12 72 14.5 14.5 0.00 0.00 0.00 39
20260501215518 12 73 14.5 17.7 0.00 0.00 0.00 39
20260501214516 12 67 14.5 17.7 0.00 0.00 0.00 40
20260501214017 12 66 14.5 17.7 0.00 0.00 0.00 40
20260501213517 12 64 17.7 17.7 0.00 0.00 0.00 40
20260501213017 12 61 17.7 17.7 0.00 0.00 0.00 39
20260501212518 12 60 17.7 17.7 0.00 0.00 0.00 40
20260501212020 12 61 17.7 17.7 0.00 0.00 0.00 40
20260501211517 12 61 17.7 20.9 0.00 0.00 0.00 40
20260501211017 12 59 17.7 17.7 0.00 0.00 0.00 40
20260501210518 12 58 17.7 17.7 0.00 0.00 0.00 40
20260501210018 12 57 17.7 17.7 0.00 0.00 0.00 41
20260501205517 12 57 14.5 17.7 0.00 0.00 0.00 41
20260501205010 12 51 14.5 17.7 0.00 0.00 0.00 42
20260501204519 12 48 14.5 17.7 0.00 0.00 0.00 41
20260501204016 12 51 20.9 20.9 0.00 0.00 0.00 40
20260501203511 12 48 20.9 20.9 0.00 0.00 0.00 40
20260501203017 12 50 17.7 17.7 0.00 0.00 0.00 39
20260501202522 12 49 14.5 17.7 0.00 0.00 0.00 39
20260501202020 12 44 14.5 17.7 0.00 0.00 0.00 40
20260501201518 12 42 17.7 17.7 0.00 0.00 0.00 40
20260501201018 12 40 14.5 17.7 0.00 0.00 0.00 41
20260501200517 12 35 14.5 14.5 0.00 0.00 0.00 41
20260501200018 12 32 14.5 17.7 0.00 0.00 0.00 40
20260501195517 12 32 14.5 17.7 0.00 0.00 0.00 41
20260501195018 12 32 14.5 14.5 0.00 0.00 0.00 39
20260501194018 13 28 11.3 14.5 0.00 0.00 0.00 38
20260501193517 13 25 11.3 11.3 0.00 0.00 0.00 38
20260501192517 13 28 11.3 11.3 0.00 0.00 0.00 37
20260501192020 13 29 11.3 11.3 0.00 0.00 0.00 37
20260501191517 13 30 11.3 11.3 0.00 0.00 0.00 37
20260501191018 13 29 11.3 11.3 0.00 0.00 0.00 37
20260501190518 13 29 11.3 14.5 0.00 0.00 0.00 37
20260501190018 13 33 14.5 14.5 0.00 0.00 0.00 37
20260501185017 13 31 14.5 14.5 0.00 0.00 0.00 37
20260501184517 13 30 14.5 17.7 0.00 0.00 0.00 37
20260501184017 13 31 14.5 17.7 0.00 0.00 0.00 37
20260501183518 13 27 14.5 14.5 0.00 0.00 0.00 37
20260501183018 13 22 11.3 14.5 0.00 0.00 0.00 37
20260501182517 13 23 11.3 14.5 0.00 0.00 0.00 37